+ View the NASA Portal
+ Center for Near-Earth Object Studies
IMPORTANT:
The SSD Announcement email list is now available. Major changes are coming in the near future, including possible hostname and/or URL changes. To be notified of such changes, subscribe to this email list.
Please visit
this page
for more details.
Don't show this message again
JPL Small-Body Database Browser
Search:
[
help
]
357570 (2004 TZ142)
Classification:
Main-belt Asteroid
SPK-ID:
2357570
[
Ephemeris
|
Orbit Diagram
|
Orbital Elements
|
Mission Design
|
Physical Parameters
|
Discovery Circumstances
]
[ show orbit diagram ]
Orbital Elements at Epoch 2458600.5 (2019-Apr-27.0) TDB
Reference:
JPL 8
(heliocentric ecliptic J2000)
Element
Value
Uncertainty (1-sigma)
Units
e
.1454880718549484
8.3704e-08
a
2.333858293328335
2.8735e-08
au
q
1.994309750249315
1.9892e-07
au
i
2.034111562736848
9.6482e-06
deg
node
35.54072965244757
0.00030503
deg
peri
68.82428806864151
0.00030774
deg
M
321.2715818119253
4.6345e-05
deg
t
p
2458740.599766007064
(2019-Sep-14.09976601)
0.00016918
TDB
period
1302.297334159473
3.57
2.4051e-05
6.585e-08
d
yr
n
.2764345672506124
5.1053e-09
deg/d
Q
2.673406836407355
3.2916e-08
au
Orbit Determination Parameters
# obs. used (total)
77
data-arc span
5114 days (14.00 yr)
first obs. used
2004-10-04
last obs. used
2018-10-05
planetary ephem.
DE431
SB-pert. ephem.
SB431-N16
condition code
0
norm. resid. RMS
.69749
source
ORB
producer
Otto Matic
solution date
2019-Jul-14 02:18:02
Additional Information
Earth MOID
= 1.01242 au
Jupiter MOID
= 2.45182 au
T_jup
= 3.554
[ show covariance matrix ]
[
Ephemeris
|
Orbit Diagram
|
Orbital Elements
|
Mission Design
|
Physical Parameters
|
Discovery Circumstances
]
Physical Parameter Table
Parameter
Symbol
Value
Units
Sigma
Reference
Notes
absolute magnitude
H
17.9
n/a
MPO455581
357570 (2004 TZ142)
Discovered 2004-Oct-04 by Spacewatch at Kitt Peak
Reference:
20130327/Numbers.arc
Last Updated:
2013-03-29
Alternate Designations
2004 TZ142
= 2008 YM119
[
Ephemeris
|
Orbit Diagram
|
Orbital Elements
|
Mission Design
|
Physical Parameters
|
Discovery Circumstances
]
2019-Dec-12 09:36 UT
(server date/time)
Site Manager:
Ryan S. Park
Webmaster
:
Alan B. Chamberlin